• In Belarus
  • List of Countries
  • For 7 days
  • Water Temperature
  • Satellite Maps
  • Weather Map
  • Weather Widgets
  • user-avatar
    Login

    Hourly Weather Arkadia

    Today, 21 September, Friday

    Time Temperature Precipitation Wind Pressure Humidity
    00:00 +15°C° 0 mm 1 mps 667 mmHg 69%
    01:00 +14°C° 0 mm 1 mps 667 mmHg 69%
    02:00 +14°C° 0 mm 1 mps 666 mmHg 68%
    03:00 +14°C° 0 mm 1 mps 666 mmHg 67%
    04:00 +13°C° 0 mm 1 mps 666 mmHg 66%
    05:00 +14°C° 0 mm 1 mps 667 mmHg 61%
    06:00 +15°C° 0 mm 1 mps 667 mmHg 55%
    07:00 +18°C° 0 mm 1 mps 667 mmHg 51%
    08:00 +20°C° 0 mm 1 mps 668 mmHg 46%
    09:00 +22°C° 0 mm 1 mps 668 mmHg 40%
    10:00 +23°C° 0 mm 2 mps 669 mmHg 34%
    11:00 +24°C° 0 mm 2 mps 669 mmHg 34%
    12:00 +24°C° 0 mm 2 mps 669 mmHg 33%
    13:00 +25°C° 0 mm 3 mps 669 mmHg 33%
    14:00 +24°C° 0 mm 2 mps 669 mmHg 37%
    15:00 +24°C° 0 mm 2 mps 669 mmHg 40%
    16:00 +23°C° 0 mm 2 mps 668 mmHg 43%
    17:00 +20°C° 0 mm 2 mps 668 mmHg 50%
    18:00 +20°C° 0 mm 1 mps 668 mmHg 57%
    19:00 +18°C° 0 mm 1 mps 667 mmHg 65%
    20:00 +18°C° 0 mm 1 mps 667 mmHg 67%
    21:00 +16°C° 0 mm 1 mps 667 mmHg 69%
    22:00 +15°C° 0 mm 0 mps 667 mmHg 71%
    23:00 +15°C° 0 mm 1 mps 667 mmHg 71%

    Tomorrow, 22 September, Saturday

    Time Temperature Precipitation Wind Pressure Humidity
    00:00 +15°C° 0 mm 1 mps 667 mmHg 71%
    01:00 +15°C° 0 mm 1 mps 667 mmHg 72%
    02:00 +14°C° 0 mm 1 mps 667 mmHg 72%
    03:00 +14°C° 0 mm 1 mps 667 mmHg 72%
    04:00 +14°C° 0 mm 1 mps 667 mmHg 72%
    05:00 +15°C° 0 mm 1 mps 667 mmHg 67%
    06:00 +16°C° 0 mm 1 mps 667 mmHg 63%
    07:00 +18°C° 0 mm 1 mps 668 mmHg 59%
    08:00 +20°C° 0 mm 1 mps 669 mmHg 52%
    09:00 +22°C° 0 mm 1 mps 669 mmHg 45%
    10:00 +24°C° 0 mm 1 mps 670 mmHg 39%
    11:00 +24°C° 0 mm 2 mps 670 mmHg 37%
    12:00 +25°C° 0 mm 2 mps 670 mmHg 36%
    13:00 +25°C° 0 mm 2 mps 670 mmHg 35%
    14:00 +25°C° 0 mm 2 mps 669 mmHg 38%
    15:00 +24°C° 0 mm 2 mps 669 mmHg 40%
    16:00 +23°C° 0 mm 2 mps 669 mmHg 43%
    17:00 +21°C° 0 mm 2 mps 669 mmHg 49%
    18:00 +20°C° 0 mm 1 mps 668 mmHg 56%
    19:00 +19°C° 0 mm 1 mps 668 mmHg 62%
    20:00 +18°C° 0 mm 1 mps 668 mmHg 64%
    21:00 +18°C° 0 mm 1 mps 668 mmHg 66%
    22:00 +18°C° 0 mm 1 mps 668 mmHg 68%
    23:00 +16°C° 0 mm 1 mps 668 mmHg 69%

    Day after tomorrow, 23 September, Sunday

    Time Temperature Precipitation Wind Pressure Humidity
    00:00 +16°C° 0 mm 1 mps 668 mmHg 69%
    01:00 +16°C° 0 mm 1 mps 668 mmHg 69%
    02:00 +16°C° 0 mm 1 mps 668 mmHg 70%
    03:00 +15°C° 0 mm 1 mps 668 mmHg 70%
    04:00 +15°C° 0 mm 1 mps 668 mmHg 71%
    05:00 +16°C° 0 mm 1 mps 668 mmHg 66%
    06:00 +18°C° 0 mm 1 mps 669 mmHg 62%
    07:00 +19°C° 0 mm 1 mps 669 mmHg 57%
    08:00 +22°C° 0 mm 1 mps 670 mmHg 48%
    09:00 +24°C° 0 mm 1 mps 671 mmHg 39%
    10:00 +26°C° 0 mm 2 mps 672 mmHg 30%
    11:00 +26°C° 0 mm 2 mps 672 mmHg 29%
    12:00 +27°C° 0 mm 2 mps 672 mmHg 27%
    13:00 +27°C° 0 mm 2 mps 671 mmHg 26%
    14:00 +27°C° 0 mm 2 mps 671 mmHg 29%
    15:00 +26°C° 0 mm 2 mps 671 mmHg 31%
    16:00 +25°C° 0 mm 2 mps 670 mmHg 34%
    17:00 +23°C° 0 mm 2 mps 670 mmHg 40%
    18:00 +22°C° 0 mm 1 mps 670 mmHg 47%
    19:00 +20°C° 0 mm 1 mps 670 mmHg 54%
    20:00 +19°C° 0 mm 1 mps 670 mmHg 55%
    21:00 +19°C° 0 mm 1 mps 669 mmHg 56%
    22:00 +18°C° 0 mm 1 mps 669 mmHg 57%
    23:00 +18°C° 0 mm 1 mps 669 mmHg 56%

    24 September, Monday

    Time Temperature Precipitation Wind Pressure Humidity
    00:00 +18°C° 0 mm 1 mps 669 mmHg 55%
    01:00 +16°C° 0 mm 1 mps 668 mmHg 54%
    02:00 +16°C° 0 mm 1 mps 668 mmHg 53%
    03:00 +16°C° 0 mm 1 mps 668 mmHg 52%
    04:00 +16°C° 0 mm 1 mps 667 mmHg 51%
    05:00 +18°C° 0 mm 1 mps 667 mmHg 49%
    06:00 +19°C° 0 mm 1 mps 668 mmHg 46%
    07:00 +20°C° 0 mm 1 mps 668 mmHg 44%
    08:00 +22°C° 0 mm 1 mps 668 mmHg 40%
    09:00 +24°C° 0 mm 1 mps 669 mmHg 35%
    10:00 +26°C° 0 mm 1 mps 669 mmHg 31%
    11:00 +27°C° 0 mm 2 mps 669 mmHg 31%
    12:00 +27°C° 0 mm 2 mps 669 mmHg 30%
    13:00 +28°C° 0 mm 2 mps 669 mmHg 29%
    14:00 +27°C° 0 mm 2 mps 668 mmHg 32%
    15:00 +26°C° 0 mm 2 mps 668 mmHg 35%
    16:00 +26°C° 0 mm 2 mps 667 mmHg 38%
    17:00 +24°C° 0 mm 2 mps 667 mmHg 46%
    18:00 +21°C° 0 mm 2 mps 667 mmHg 54%
    19:00 +20°C° 0 mm 1 mps 666 mmHg 62%
    20:00 +19°C° 0 mm 1 mps 666 mmHg 64%
    21:00 +19°C° 0 mm 1 mps 666 mmHg 67%
    22:00 +18°C° 0 mm 1 mps 666 mmHg 69%
    23:00 +18°C° 0 mm 1 mps 666 mmHg 68%

    25 September, Tuesday

    Time Temperature Precipitation Wind Pressure Humidity
    00:00 +18°C° 0 mm 1 mps 666 mmHg 68%
    01:00 +18°C° 0 mm 1 mps 666 mmHg 67%
    02:00 +18°C° 0 mm 1 mps 666 mmHg 67%
    03:00 +16°C° 0 mm 2 mps 666 mmHg 66%
    04:00 +16°C° 0 mm 2 mps 666 mmHg 66%
    05:00 +17°C° 0 mm 2 mps 666 mmHg 64%
    06:00 +18°C° 0 mm 2 mps 667 mmHg 62%
    07:00 +18°C° 0 mm 2 mps 667 mmHg 60%
    08:00 +19°C° 0 mm 3 mps 668 mmHg 56%
    09:00 +21°C° 0 mm 3 mps 669 mmHg 51%
    10:00 +22°C° 0 mm 3 mps 669 mmHg 46%
    11:00 +22°C° 0 mm 3 mps 669 mmHg 45%
    12:00 +22°C° 0 mm 3 mps 669 mmHg 44%
    13:00 +23°C° 0 mm 4 mps 669 mmHg 44%
    14:00 +21°C° 0 mm 3 mps 669 mmHg 47%
    15:00 +20°C° 0 mm 3 mps 669 mmHg 50%
    16:00 +19°C° 0 mm 3 mps 669 mmHg 53%
    17:00 +18°C° 0 mm 3 mps 669 mmHg 55%
    18:00 +16°C° 0 mm 3 mps 669 mmHg 58%
    19:00 +14°C° 0 mm 3 mps 669 mmHg 60%
    20:00 +14°C° 0 mm 3 mps 669 mmHg 62%
    21:00 +13°C° 0 mm 3 mps 669 mmHg 63%
    22:00 +13°C° 0 mm 3 mps 669 mmHg 65%
    23:00 +12°C° 0 mm 3 mps 669 mmHg 66%

    26 September, Wednesday

    Time Temperature Precipitation Wind Pressure Humidity
    00:00 +12°C° 0 mm 3 mps 669 mmHg 67%
    01:00 +12°C° 0 mm 3 mps 669 mmHg 68%
    02:00 +11°C° 0 mm 3 mps 669 mmHg 68%
    03:00 +11°C° 0 mm 4 mps 669 mmHg 67%
    04:00 +11°C° 0 mm 4 mps 669 mmHg 66%
    05:00 +11°C° 0 mm 4 mps 669 mmHg 64%
    06:00 +11°C° 0 mm 4 mps 669 mmHg 62%
    07:00 +11°C° 0 mm 4 mps 669 mmHg 60%
    08:00 +12°C° 0 mm 4 mps 669 mmHg 56%
    09:00 +14°C° 0 mm 3 mps 670 mmHg 52%
    10:00 +16°C° 0 mm 3 mps 670 mmHg 48%
    11:00 +17°C° 0 mm 3 mps 670 mmHg 45%
    12:00 +18°C° 0 mm 3 mps 670 mmHg 42%
    13:00 +18°C° 0 mm 3 mps 670 mmHg 39%
    14:00 +18°C° 0 mm 3 mps 670 mmHg 40%
    15:00 +17°C° 0 mm 3 mps 669 mmHg 41%
    16:00 +17°C° 0 mm 3 mps 669 mmHg 42%
    17:00 +14°C° 0 mm 3 mps 669 mmHg 46%
    18:00 +14°C° 0 mm 2 mps 668 mmHg 51%
    19:00 +12°C° 0 mm 2 mps 668 mmHg 55%
    20:00 +12°C° 0 mm 2 mps 668 mmHg 57%
    21:00 +10°C° 0 mm 2 mps 668 mmHg 59%
    22:00 +10°C° 0 mm 2 mps 668 mmHg 60%
    23:00 +9°C° 0 mm 2 mps 668 mmHg 60%
    Show more